Погода в Горбуновке

Россия / Забайкальский край     51°13′46″N   119°45′35″E
темп.,
°C
ветер,
м/с
пор.,
м/с
влажн.,
%
обл.,
%
осадки,
мм/ч
давл.,
гПа
погр.,
м
17 мая, пн
пн1700:00+9зюз3365100 0.0 100231
03:00+8зсз2369100 0.0 100358
06:00+7з117274 0.0 100311
09:00+12ссв115379 0.0 1003758
12:00+16юз463676 0.0 10002272
15:00+12зсз8969100 0.5 10001109
18:00+10з477866 3.6 999714
21:00+10ююз368071 3.6 999171
18 мая, вт
вт1800:00+7ююз228871 0.0 99922
03:00+7зсз228897 0.0 100012
06:00+5зсз2284100 0.0 100326
09:00+9сз56425 0.0 10041379
12:00+12зсз4830100 0.0 10032708
15:00+14зюз4828100 0.0 10012995
18:00+14з6931100 0.0 10003205
21:00+9ссз224157 0.0 100210
19 мая, ср
ср1900:00+6ссв004499 0.0 100410
03:00+4в1150100 0.0 100410
06:00+5ююв115314 0.0 100310
09:00+12ююз4738100 0.0 1001594
12:00+16ююз7935100 0.0 9971912
15:00+16ююз81545100 0.0 9931802
18:00+14з51170100 1.4 991531
21:00+8сз712825 2.1 996660
20 мая, чт
чт2000:00+4зсз488898 0.0 1002302
03:00+4зюз008325 0.0 100320
06:00+3юз2288100 0.0 100567
09:00+8ююз2365100 0.0 1004474
12:00+10з236089 0.2 1006918
15:00+13ююз1243100 0.2 10041590
18:00+14с124263 0.0 10041486
21:00+9всв336252 0.0 100536
21 мая, пт
пт2100:00+8св3564100 0.0 1006150
03:00+7юз1173100 0.6 100619
06:00+7св258583 1.8 1003228
09:00+13вюв714615 1.8 999887
12:00+21ююв81240100 0.0 9951499
15:00+26ююв8143524 0.0 9912314
18:00+24ююв5932100 0.0 989259
21:00+17вюв346616 0.0 99061